DW3195 Weather Reports


time (UTC)temp
F
wind
direction
speed
knots
gust
knots
rain 1hr
in
rain 24hr
in
rain mn
in
humidity
%
barometer
mb
20260831231506 76 0 0.0 0.0 0.00 0.31 0.28 86 923.2
20260831231006 77 0 0.0 0.0 0.00 0.31 0.28 85 923.2
20260831230505 78 0 0.0 0.0 0.00 0.31 0.28 84 923.2
20260831230005 79 0 0.0 0.0 0.00 0.31 0.28 82 923.3
20260831224505 83 0 0.0 0.0 0.00 0.31 0.28 79 923.7
20260831224005 84 0 0.0 0.0 0.00 0.31 0.28 76 924.3
20260831223505 85 0 0.0 0.0 0.00 0.31 0.28 72 924.8
20260831223006 85 0 0.0 0.0 0.00 0.31 0.28 73 924.9
20260831221507 83 0 0.0 0.0 0.01 0.31 0.28 79 923.6
20260831221005 82 0 0.0 0.0 0.01 0.31 0.28 79 923.6
20260831220505 81 0 0.0 0.0 0.02 0.31 0.28 81 923.5
20260831220005 81 0 0.0 0.0 0.02 0.31 0.30 82 923.6
20260831214505 78 0 0.0 0.0 0.10 0.31 0.30 85 923.8
20260831214005 77 0 0.0 0.0 0.12 0.31 0.30 88 924.1
20260831213505 76 0 0.0 0.0 0.15 0.31 0.30 90 924.1
20260831213006 75 0 0.0 0.0 0.20 0.31 0.30 89 924.1
20260831211505 76 0 0.0 0.0 0.29 0.30 0.29 88 924.0
20260831211006 76 0 0.0 0.0 0.29 0.30 0.29 87 924.0
20260831210505 75 0 0.0 0.0 0.29 0.30 0.29 88 924.1
20260831204505 75 0 0.0 0.0 0.20 0.21 0.20 88 924.4
20260831203505 78 0 0.0 0.0 0.15 0.15 0.15 84 924.7
20260831203005 80 0 0.0 0.0 0.10 0.10 0.10 74 926.4
20260831201505 82 0 0.0 0.0 0.00 0.00 0.00 68 927.3
20260831201005 83 0 0.0 0.0 0.00 0.00 0.00 67 927.6
20260831200505 84 0 0.0 0.0 0.00 0.00 0.00 64 928.5
20260831200005 85 0 0.0 0.0 0.00 0.00 0.00 62 928.9
20260831194505 87 0 0.0 0.0 0.00 0.00 0.00 56 929.8
20260831194005 86 0 0.0 0.0 0.00 0.00 0.00 53 930.0
20260831193504 85 0 0.0 0.0 0.00 0.00 0.00 57 929.8
20260831193005 84 0 0.0 0.0 0.00 0.00 0.00 59 929.8
20260831191504 87 0 0.0 0.0 0.00 0.00 0.00 54 930.2
20260831191005 87 0 0.0 0.0 0.00 0.00 0.00 54 930.1
20260831190504 86 0 0.0 0.0 0.00 0.00 0.00 56 930.0
20260831190005 86 0 0.0 0.0 0.00 0.00 0.00 58 930.0
20260831184504 86 0 0.0 0.0 0.00 0.00 0.00 58 929.7
20260831184005 85 0 0.0 0.0 0.00 0.00 0.00 57 930.1
20260831183005 85 0 0.0 0.0 0.00 0.00 0.00 59 929.9
20260831181504 84 0 0.0 0.0 0.00 0.00 0.00 61 929.7
20260831181005 84 0 0.0 0.0 0.00 0.00 0.00 59 929.7
20260831180505 85 0 0.0 0.0 0.00 0.00 0.00 60 929.9
20260831180004 84 0 0.0 0.0 0.00 0.00 0.00 59 929.8
20260831174504 83 0 0.0 0.0 0.00 0.00 0.00 61 929.1
20260831174005 84 0 0.0 0.0 0.00 0.00 0.00 60 930.1
20260831173504 84 0 0.0 0.0 0.00 0.00 0.00 61 929.2
20260831173005 84 0 0.0 0.0 0.00 0.00 0.00 61 929.6
20260831171004 82 0 0.0 0.0 0.00 0.00 0.00 64 929.2
20260831170504 82 0 0.0 0.0 0.00 0.00 0.00 68 928.5
20260831164504 81 0 0.0 0.0 0.00 0.00 0.00 64 929.6
20260831164004 82 0 0.0 0.0 0.00 0.00 0.00 65 929.7
20260831163504 82 0 0.0 0.0 0.00 0.00 0.00 65 929.2
20260831163005 83 0 0.0 0.0 0.00 0.00 0.00 66 929.1
20260831161504 83 0 0.0 0.0 0.00 0.00 0.00 61 930.4
20260831161005 83 0 0.0 0.0 0.00 0.00 0.00 61 929.3
20260831160504 83 0 0.0 0.0 0.00 0.00 0.00 66 929.1
20260831160005 82 0 0.0 0.0 0.00 0.00 0.00 64 928.9
20260831154504 82 0 0.0 0.0 0.00 0.00 0.00 65 929.7
20260831154004 83 0 0.0 0.0 0.00 0.00 0.00 64 929.9
20260831153504 82 0 0.0 0.0 0.00 0.00 0.00 65 929.7
20260831153004 82 0 0.0 0.0 0.00 0.00 0.00 66 929.0
20260831151504 82 0 0.0 0.0 0.00 0.00 0.00 64 929.2
20260831151004 82 0 0.0 0.0 0.00 0.00 0.00 70 928.4
20260831150505 81 0 0.0 0.0 0.00 0.00 0.00 67 927.3
20260831150004 81 0 0.0 0.0 0.00 0.00 0.00 68 928.5
20260831144504 81 0 0.0 0.0 0.00 0.00 0.00 75 925.9
20260831144004 81 0 0.0 0.0 0.00 0.00 0.00 69 928.5
20260831143504 81 0 0.0 0.0 0.00 0.00 0.00 73 927.8
20260831141504 77 0 0.0 0.0 0.00 0.00 0.00 79 926.1
20260831141005 77 0 0.0 0.0 0.00 0.00 0.00 79 925.9
20260831140506 76 0 0.0 0.0 0.00 0.00 0.00 80 925.6
20260831140005 75 0 0.0 0.0 0.00 0.00 0.00 86 925.0
20260831134505 73 0 0.0 0.0 0.00 0.00 0.00 91 924.1
20260831134005 73 0 0.0 0.0 0.00 0.00 0.00 91 924.3
20260831133005 72 0 0.0 0.0 0.00 0.00 0.00 94 925.0
20260831131506 70 0 0.0 0.0 0.00 0.00 0.00 96 924.6
20260831131005 69 0 0.0 0.0 0.00 0.00 0.00 96 924.5
20260831130506 68 0 0.0 0.0 0.00 0.00 0.00 96 924.4
20260831124505 64 0 0.0 0.0 0.00 0.00 0.00 95 924.1
20260831124006 64 0 0.0 0.0 0.00 0.00 0.00 95 924.1
20260831123505 63 0 0.0 0.0 0.00 0.00 0.00 95 924.1
20260831121506 61 0 0.0 0.0 0.00 0.00 0.00 95 924.0
20260831120505 61 0 0.0 0.0 0.00 0.00 0.00 95 923.9
20260831120005 60 0 0.0 0.0 0.00 0.00 0.00 95 923.9
20260831114505 60 0 0.0 0.0 0.00 0.00 0.00 95 923.9
20260831114006 60 0 0.0 0.0 0.00 0.00 0.00 95 923.9
20260831113505 59 0 0.0 0.0 0.00 0.00 0.00 95 923.9
20260831113005 59 0 0.0 0.0 0.00 0.00 0.00 95 923.9
20260831111005 59 0 0.0 0.0 0.00 0.00 0.00 95 923.8
20260831110505 59 0 0.0 0.0 0.00 0.00 0.00 95 923.7
20260831110005 59 0 0.0 0.0 0.00 0.00 0.00 95 923.7
20260831104504 59 0 0.0 0.0 0.00 0.00 0.00 95 923.6
20260831104005 59 0 0.0 0.0 0.00 0.00 0.00 95 923.5
20260831103504 59 0 0.0 0.0 0.00 0.00 0.00 95 923.4
20260831103005 59 0 0.0 0.0 0.00 0.00 0.00 95 923.4
20260831101505 59 0 0.0 0.0 0.00 0.00 0.00 95 923.4
20260831101005 60 0 0.0 0.0 0.00 0.00 0.00 95 923.3
20260831100004 60 0 0.0 0.0 0.00 0.00 0.00 95 923.3
20260831094005 60 0 0.0 0.0 0.00 0.00 0.00 95 923.2
20260831093504 60 0 0.0 0.0 0.00 0.00 0.00 95 923.3
20260831093005 60 0 0.0 0.0 0.00 0.00 0.00 95 923.3
20260831091504 60 0 0.0 0.0 0.00 0.00 0.00 95 923.4
20260831091004 60 0 0.0 0.0 0.00 0.00 0.00 95 923.4
20260831090504 60 0 0.0 0.0 0.00 0.00 0.00 95 923.3
20260831090004 60 0 0.0 0.0 0.00 0.00 0.00 95 923.3
20260831084504 60 0 0.0 0.0 0.00 0.00 0.00 95 923.4
20260831084005 60 0 0.0 0.0 0.00 0.00 0.00 95 923.4
20260831083504 60 0 0.0 0.0 0.00 0.00 0.00 95 923.4
20260831083005 60 0 0.0 0.0 0.00 0.00 0.00 95 923.3
20260831081504 60 0 0.0 0.0 0.00 0.00 0.00 95 923.3
20260831081005 61 0 0.0 0.0 0.00 0.00 0.00 95 923.2
20260831080505 60 0 0.0 0.0 0.00 0.00 0.00 95 923.2
20260831080004 61 0 0.0 0.0 0.00 0.00 0.00 95 923.2
20260831074504 61 0 0.0 0.0 0.00 0.00 0.00 95 923.2
20260831074005 61 0 0.0 0.0 0.00 0.00 0.00 95 923.2
20260831073504 61 0 0.0 0.0 0.00 0.00 0.00 95 923.2
20260831073004 61 0 0.0 0.0 0.00 0.00 0.00 95 923.2
20260831071504 61 0 0.0 0.0 0.00 0.00 0.00 95 923.2
20260831071005 61 0 0.0 0.0 0.00 0.00 0.00 95 923.2
20260831070504 61 0 0.0 0.0 0.00 0.00 0.00 95 923.3
20260831064504 61 0 0.0 0.0 0.00 0.00 0.00 95 923.3
20260831063504 61 0 0.0 0.0 0.00 0.00 0.00 95 923.4
20260831063004 61 0 0.0 0.0 0.00 0.00 0.00 95 923.4
20260831061504 62 0 0.0 0.0 0.00 0.00 0.00 95 923.5
20260831061004 62 0 0.0 0.0 0.00 0.00 0.00 95 923.5
20260831060504 62 0 0.0 0.0 0.00 0.00 0.00 95 923.5
20260831060004 62 0 0.0 0.0 0.00 0.00 0.00 95 923.5
20260831054504 62 0 0.0 0.0 0.00 0.00 0.00 95 923.5
20260831053504 62 0 0.0 0.0 0.00 0.00 0.00 95 923.6
20260831053004 62 0 0.0 0.0 0.00 0.00 0.00 95 923.6
20260831051004 63 0 0.0 0.0 0.00 0.00 0.00 95 923.7
20260831050505 63 0 0.0 0.0 0.00 0.00 0.00 95 923.7
20260831050006 63 0 0.0 0.0 0.00 0.00 0.00 95 923.7
20260831044005 63 0 0.0 0.0 0.00 0.00 0.00 95 923.7
20260831043505 63 0 0.0 0.0 0.00 0.00 0.00 95 923.8
20260831043006 63 0 0.0 0.0 0.00 0.00 0.00 95 923.8
20260831041505 64 0 0.0 0.0 0.00 0.00 0.00 95 923.8
20260831041005 64 0 0.0 0.0 0.00 0.00 0.00 95 923.8
20260831040505 64 0 0.0 0.0 0.00 0.00 0.00 95 923.8
20260831040005 64 0 0.0 0.0 0.00 0.00 0.00 95 923.8
20260831034505 64 0 0.0 0.0 0.00 0.00 0.00 95 923.9
20260831034005 64 0 0.0 0.0 0.00 0.00 0.00 95 923.9
20260831033505 64 0 0.0 0.0 0.00 0.00 0.00 95 924.0
20260831033005 64 0 0.0 0.0 0.00 0.00 0.00 95 924.0
20260831031505 64 0 0.0 0.0 0.00 0.00 0.00 95 924.2
20260831031005 64 0 0.0 0.0 0.00 0.00 0.00 95 924.1
20260831030505 64 0 0.0 0.0 0.00 0.00 0.00 95 924.1
20260831030005 64 0 0.0 0.0 0.00 0.00 0.00 95 924.1
20260831024005 64 0 0.0 0.0 0.00 0.00 0.00 95 924.1
20260831021505 65 0 0.0 0.0 0.00 0.00 0.00 94 924.1
20260831021005 65 0 0.0 0.0 0.00 0.00 0.00 95 924.1
20260831020504 65 0 0.0 0.0 0.00 0.00 0.00 94 924.2
20260831020005 65 0 0.0 0.0 0.00 0.00 0.00 94 924.2
20260831014505 66 0 0.0 0.0 0.00 0.00 0.00 94 924.1
20260831013505 66 0 0.0 0.0 0.00 0.00 0.00 94 924.1
20260831013005 66 0 0.0 0.0 0.00 0.00 0.00 93 924.0
20260831011505 67 0 0.0 0.0 0.00 0.00 0.00 93 924.0
20260831011005 67 0 0.0 0.0 0.00 0.00 0.00 93 924.0
20260831010505 67 0 0.0 0.0 0.00 0.00 0.00 93 924.0
20260831010005 67 0 0.0 0.0 0.00 0.00 0.00 92 923.9
20260831004505 68 0 0.0 0.0 0.00 0.00 0.00 92 923.7
20260831004005 68 0 0.0 0.0 0.00 0.00 0.00 91 923.6
20260831003504 69 0 0.0 0.0 0.00 0.00 0.00 91 923.7
20260831003005 69 0 0.0 0.0 0.00 0.00 0.00 91 923.7
20260831001504 70 0 0.0 0.0 0.00 0.00 0.00 89 923.8
20260831001005 71 0 0.0 0.0 0.00 0.00 0.00 89 923.8
20260830234505 73 0 0.0 0.0 0.00 0.00 0.00 85 924.2
20260830234005 74 0 0.0 0.0 0.00 0.00 0.00 85 924.2
20260830233504 74 0 0.0 0.0 0.00 0.00 0.00 83 924.5
20260830233005 75 0 0.0 0.0 0.00 0.00 0.00 83 924.5